Regional Weather Roundup
Issued by NWS

Home | Current Version | Previous Version | Graphics & Text | Print | Product List | Glossary On
Versions: 1 2 3 4 5 6 7 8 9 10 11 12 13 14 15 16 17 18 19 20 21 22 23 24 25 26 27 28 29 30 31 32 33 34 35 36 37 38 39 40 41 42 43 44 45 46 47 48 49 50
493
ASUS43 KDTX 131610
RWRMI
MICHIGAN HOURLY REGIONAL WEATHER ROUNDUP
NATIONAL WEATHER SERVICE DETROIT/PONTIAC MI
1100 AM EST WED DEC 13 2017

NOTE: "FAIR" INDICATES FEW OR NO CLOUDS BELOW 12,000 FEET WITH NO
SIGNIFICANT WEATHER AND/OR OBSTRUCTION TO VISIBILITY.

MIZ047>049-052>055-059>063-066>070-074>076-081>083-131700-
SOUTHEAST LOWER MICHIGAN

CITY           SKY/WX    TMP DP  RH WIND       PRES   REMARKS
ADRIAN         LGT SNOW  17  12  80 S10       29.73F VSB 1   WCI   5
ALMA           SNOW      18  16  91 SE8       29.68F VSB 1/2 WCI   8
ANN ARBOR      SNOW      17  13  84 S13       29.72F VSB 1/2 WCI   4
BAD AXE        CLOUDY    15   8  75 S7        29.74F WCI   5
CARO           LGT SNOW  18  12  79 S7        29.72F WCI   8
DETROIT CITY   LGT SNOW  19  15  84 S7        29.76F FOG     WCI  10
DETROIT        LGT SNOW  20  16  84 S10       29.77F VSB 1   WCI   9
FLINT          LGT SNOW  17  13  84 S9        29.71F VSB 3/4 WCI   6
GROSSE ILE     LGT SNOW  21  18  86 SW12      29.76F VSB 1   WCI   9
HILLSDALE      LGT SNOW  19  12  73 SE7       29.65F WCI  10
HOWELL         LGT SNOW  18  16  92 S8        29.69F VSB 1   WCI   8

CITY           SKY/WX    TMP DP  RH WIND       PRES   REMARKS
JACKSON        HVY SNOW  17  12  80 SE9       29.66F VSB 1/4 WCI   6
LAMBERTVILLE   LGT SNOW  19  14  84 S6        29.76F WCI  10
LANSING        SNOW      18  15  88 SE9       29.67F VSB 1/4 WCI   7
LAPEER         LGT SNOW  18  13  78 S3        29.72F
MASON          LGT SNOW  19  13  79 SE10      29.67F VSB 3/4 WCI   7
MONROE         LGT SNOW  19  14  82 S8        29.76F WCI   9
MT. CLEMENS    LGT SNOW  19  14  79 S7        29.74F WCI  10
PONTIAC        LGT SNOW  17  14  88 SE8       29.70F FOG     WCI   7
PORT HOPE        N/A     16   8  71 SW8       29.72F WCI   5
PORT HURON     CLOUDY    19   9  63 S7        29.76F WCI  10
TRI CITIES     LGT SNOW  18  15  88 SE8       29.72F VSB 3/4 WCI   8
MIDLAND        LGT SNOW  19  15  84 SE6       29.70F VSB 3/4 WCI  10
TROY           LGT SNOW  20  16  83 S6        29.76F WCI  12
SAGINAW HB     LGT SNOW  19  16  86 SE8       29.72F WCI   9
$$
MIZ043>046-050>051-056>058-064>065-071>073-077>080-131700-
SOUTHWEST LOWER MICHIGAN

CITY           SKY/WX    TMP DP  RH WIND       PRES   REMARKS
BATTLE CREEK   CLOUDY    18  14  84 SE12      29.63F WCI   5
BENTON HARBOR  CLOUDY    25  10  53 SE12G21   29.54F WCI  14
BIG RAPIDS     SNOW      17  14  86 SE9       29.60F VSB 1/2 WCI   6
COLDWATER      CLOUDY    21  12  68 SE10      29.64F WCI  10
FREMONT        LGT SNOW  19  17  93 SE13      29.57F WCI   6
HOLLAND        CLOUDY    20  15  81 SE16G25   29.57F WCI   6
GRAND RAPIDS   SNOW      18  17  96 SE10      29.61F VSB 1/4 WCI   6
IONIA          LGT SNOW  18  15  88 SE9       29.64F VSB 3/4 WCI   7
KALAMAZOO      CLOUDY    21  13  71 SE10      29.60F WCI  10
LUDINGTON      LGT SNOW  19  16  86 SE14      29.55F VSB 1   WCI   6
MARSHALL       LGT SNOW  17  14  88 SE8       29.64F WCI   7
MOUNT PLEASANT LGT SNOW  18  14  83 SE9       29.66F VSB 3/4 WCI   7
MUSKEGON       LGT SNOW  20  15  81 SE18      29.55F VSB 1   WCI   5
SOUTH HAVEN    CLOUDY    24  12  58 SE8G17    29.55F WCI  15
$$
MIZ016>042-131700-
NORTHERN LOWER MICHIGAN

CITY           SKY/WX    TMP DP  RH WIND       PRES   REMARKS
ALPENA         CLOUDY    13   8  81 CALM      29.73F
BEAVER ISLAND  LGT SNOW  17  13  84 E14       29.67S WCI   3
BELLAIRE       LGT SNOW  15  12  89 E3        29.67F
CADILLAC       SNOW      15  11  87 SE12      29.58F VSB 1/2 WCI   1
CHARLEVOIX     LGT SNOW  15  10  80 SE13      29.69F WCI   1
FRANKFORT      LGT SNOW  20  16  84 SE9       29.60F WCI   9
GAYLORD        CLOUDY    10   3  73 SE8       29.62F WCI  -2
GRAYLING       LGT SNOW  12   7  79 E8        29.64F WCI   1
HARBOR SPRINGS CLOUDY    13   5  71 E9G16     29.69S WCI   0
HOUGHTON LAKE  LGT SNOW  13   9  84 SE8       29.64F FOG     WCI   2
MANISTEE       SNOW      19  16  88 E13       29.57F VSB 1/2 WCI   6
OSCODA         CLOUDY    14   4  65 CALM      29.73F
PELLSTON       CLOUDY    12   7  80 SE12      29.71S WCI  -2
ROGERS CITY    PTSUNNY   12   7  79 SE5       29.73F WCI   4
TRAVERSE CITY  LGT SNOW  18  13  80 SE6       29.63F VSB 3/4 WCI  10
$$
MIZ007>008-015-131700-
EASTERN UPPER MICHIGAN

CITY           SKY/WX    TMP DP  RH WIND       PRES   REMARKS
KINROSS        CLOUDY    -1  -8  72 E6        29.73F WCI -13
MACKINAC ISLAN LGT SNOW  14  11  85 E6G17     29.70S WCI   5
NEWBERRY       CLOUDY     1  -2  87 E7        29.69S WCI -12
S. S. MARIE    CLOUDY    -1  -7  75 E6        29.74F WCI -13
MUNISING         N/A     14  10  84 SE8       29.66S WCI   3
$$
MIZ004>006-011>014-085-131700-
CENTRAL UPPER MICHIGAN

CITY           SKY/WX    TMP DP  RH WIND       PRES   REMARKS
MANISTIQUE     SNOW      14   9  81 E12G18    29.65S VSB 1/2 WCI   0
ESCANABA       LGT SNOW  18  16  92 NE10      29.59F VSB 3/4 WCI   6
MENOMINEE      LGT SNOW  25  23  92 E17       29.51F VSB 1   WCI  12
SAWYER-GWINN   LGT SNOW  12   9  85 E8        29.59S VSB 3/4 WCI   1
$$
MIZ001>003-009>011-084-131700-
WESTERN UPPER MICHIGAN

CITY           SKY/WX    TMP DP  RH WIND       PRES   REMARKS
IRON MOUNTAIN  HVY SNOW  14   9  80 NE7       29.52F VSB 1/4 WCI   4
HOUGHTON         N/A    N/A N/A N/A MISG      29.59S
COPPER HARBOR    N/A     22  17  81 SE12G17   29.65R WCI  10
$$

ABBREVIATIONS USED IN REMARKS
   TC - TEMPERATURE IN CELSIUS
  WCI - WIND CHILL INDEX
   HX - HEAT INDEX
  VSB - VISIBILITY





USA.gov is the U.S. government's official web portal to all federal, state and local government web resources and services.